Regional Weather Roundup
Issued by NWS

Home | Current Version | Previous Version | Text Only | Print | Product List | Glossary Off
Versions: 1 2 3 4 5 6 7 8 9 10 11 12 13 14 15 16 17 18 19 20 21 22 23 24 25 26 27 28 29 30 31 32 33 34 35 36 37 38 39 40 41 42 43 44 45 46 47 48 49 50

000
ASUS43 KOAX 301010
RWRNE
OMARWRNE ALL

WEATHER ROUNDUP FOR NEBRASKA
NATIONAL WEATHER SERVICE OMAHA NE
500 AM CDT SAT MAY 30 2015

NOTES: SATELLITE DATA IS BEING USED TO AUGMENT CLOUD COVER ABOVE
       12000 FEET.
       "FAIR" INDICATES FEW OR NO CLOUDS BELOW 12,000 FEET WITH NO
       SIGNIFICANT WEATHER AND/OR OBSTRUCTIONS TO VISIBILITY.

  * THESE STATIONS DO NOT REPORT WEATHER SUCH AS RAIN...SNOW OR FOG.

NEZ001>004-019>022-054>056-301100-
NEBRASKA PANHANDLE

CITY           SKY/WX    TMP DP  RH WIND       PRES   REMARKS
SCOTTSBLUFF    CLOUDY    47  46  97 S5        30.30S
ALLIANCE       FOG       36  36 100 CALM      30.29S VSB 1/4
CHADRON        CLOUDY    37  37 100 CALM      30.30S FOG
KIMBALL          N/A    N/A N/A N/A MISG        N/A
SIDNEY         CLOUDY    45  44  97 W5        30.31S
$$

NEZ057>060-069>072-079>082-301100-
SOUTHWEST NEBRASKA

CITY           SKY/WX    TMP DP  RH WIND       PRES   REMARKS
NORTH PLATTE   CLEAR     39  37  92 NW7       30.29S WCI  34
IMPERIAL       CLEAR     43  40  89 NW7       30.30S
LEXINGTON      PTCLDY    45  42  90 NW10      30.25S
MCCOOK         CLEAR     45  41  86 NW9       30.27S
OGALLALA       CLEAR     40  39  97 NW7       30.30F
$$

NEZ005>010-023>029-035>040-094-301100-
NORTH CENTRAL NEBRASKA

CITY           SKY/WX    TMP DP  RH WIND       PRES   REMARKS
VALENTINE      CLEAR     38  35  89 N7        30.29S WCI  33
AINSWORTH      PTCLDY    40  38  93 NW6       30.28S
BROKEN BOW     CLEAR     44  39  82 NW8       30.25R
O`NEILL        CLEAR     42  41  97 N9        30.25R
ORD            PTCLDY    43  40  89 NW10      30.23R
THEDFORD       MOCLDY    40  38  95 NW5       30.29S
$$

NEZ041-046>049-061>064-073>077-083>087-301100-
SOUTH CENTRAL NEBRASKA

CITY           SKY/WX    TMP DP  RH WIND       PRES   REMARKS
GRAND ISLAND   PTCLDY    47  42  83 N12       30.21R
AURORA         CLOUDY    49  45  86 N16       30.19R
HASTINGS       CLOUDY    50  41  71 N15       30.19S
HEBRON         CLOUDY    50  45  81 N8G16     30.16R
HOLDREGE       MOCLDY    47  41  78 N12       30.23R
KEARNEY *      CLOUDY    48  39  71 N14       30.22S
YORK           CLOUDY    50  46  87 N13G21    30.17R
$$

NEZ011>018-030>034-042>045-301100-
NORTHEAST NEBRASKA

CITY           SKY/WX    TMP DP  RH WIND       PRES   REMARKS
NORFOLK        CLOUDY    49  43  80 N13       30.18R
ALBION         CLOUDY    48  42  79 N12G17    30.20R
BLAIR          CLOUDY    50  45  80 N12G17    30.12R
COLUMBUS *     CLOUDY    50  39  66 N10       30.19R
FREMONT        CLOUDY    52  45  75 N12       30.15R
TEKAMAH        CLOUDY    53  46  77 N17       30.13R
WAYNE          DRIZZLE   48  44  87 N14       30.17S
$$

NEZ050>053-065>068-078-088>093-301100-
SOUTHEAST NEBRASKA

CITY           SKY/WX    TMP DP  RH WIND       PRES   REMARKS
LINCOLN        CLOUDY    52  45  77 N13       30.14S
OMAHA EPPLEY   CLOUDY    52  47  83 N15G24    30.11R
BEATRICE       CLOUDY    51  47  84 N21       30.12S
FALLS CITY     CLOUDY    54  51  90 N13G21    30.06R
NEBRASKA CITY  CLOUDY    51  50  95 N14G22    30.10R
PLATTSMOUTH    CLOUDY    50  46  86 NW13G22   30.10S
$$

NEZ044-045-051>053-067-301100-
OMAHA AREA

CITY           SKY/WX    TMP DP  RH WIND       PRES   REMARKS
OMAHA EPPLEY   CLOUDY    52  47  83 N15G24    30.11R
BLAIR          CLOUDY    50  45  80 N12G17    30.12R
FREMONT        CLOUDY    52  45  75 N12       30.15R
MILLARD        CLOUDY    52  46  79 N7G16     30.12S
OFFUTT AFB     CLOUDY    52  47  82 NW13G18   30.10R
PLATTSMOUTH    CLOUDY    50  46  86 NW13G22   30.10S
WAHOO          CLOUDY    52  46  79 N17       30.14R
$$


USA.gov is the U.S. government's official web portal to all federal, state and local government web resources and services.